SV1BYK-4 Weather Reports


Display with metric or nautical units.
time (UTC)temp
F
wind
direction
speed
MPH
gust
MPH
rain 1hr
in
rain 24hr
in
rain mn
in
humidity
%
barometer
mb
20260902192711 86 283 0.0 2.0 0.00 0.00 0.00 35 989.8
20260902191811 86 292 1.0 2.0 0.00 0.00 0.00 35 989.8
20260902190911 86 287 0.0 4.0 0.00 0.00 0.00 35 989.7
20260902190011 87 297 1.0 4.0 0.00 0.00 0.00 35 989.7
20260902184211 87 288 1.0 4.0 0.00 0.00 0.00 34 989.8
20260902183311 87 289 0.0 4.0 0.00 0.00 0.00 34 989.7
20260902182411 87 265 2.0 4.0 0.00 0.00 0.00 33 989.6
20260902180611 88 270 1.0 4.0 0.00 0.00 0.00 33 989.6
20260902175711 88 256 1.0 4.0 0.00 0.00 0.00 33 989.4
20260902174811 88 251 2.0 4.0 0.00 0.00 0.00 33 989.3
20260902173911 89 228 2.0 4.0 0.00 0.00 0.00 32 989.2
20260902173011 89 253 1.0 6.0 0.00 0.00 0.00 32 989.4
20260902172111 89 268 2.0 7.0 0.00 0.00 0.00 32 989.2
20260902171211 89 276 2.0 7.0 0.00 0.00 0.00 32 989.2
20260902170311 89 239 3.0 7.0 0.00 0.00 0.00 32 989.1
20260902165411 90 240 3.0 7.0 0.00 0.00 0.00 32 989.1
20260902164511 90 213 3.0 8.0 0.00 0.00 0.00 32 989.1
20260902163611 91 252 3.0 8.0 0.00 0.00 0.00 31 989.3
20260902162711 91 244 2.0 7.0 0.00 0.00 0.00 31 989.4
20260902161811 92 255 2.0 6.0 0.00 0.00 0.00 31 989.6
20260902160911 93 246 2.0 6.0 0.00 0.00 0.00 30 989.7
20260902160011 94 256 2.0 6.0 0.00 0.00 0.00 29 989.7
20260902155111 94 262 2.0 7.0 0.00 0.00 0.00 29 989.9
20260902154211 94 261 2.0 7.0 0.00 0.00 0.00 29 989.8
20260902153311 94 256 2.0 7.0 0.00 0.00 0.00 29 989.8
20260902152411 95 240 3.0 8.0 0.00 0.00 0.00 28 989.7
20260902151511 96 259 3.0 6.0 0.00 0.00 0.00 28 989.7
20260902150611 97 258 2.0 7.0 0.00 0.00 0.00 27 989.7
20260902145711 97 230 2.0 6.0 0.00 0.00 0.00 27 989.9
20260902144811 96 286 3.0 8.0 0.00 0.00 0.00 27 989.8
20260902143911 96 278 3.0 7.0 0.00 0.00 0.00 27 990.0
20260902143011 96 266 4.0 8.0 0.00 0.00 0.00 27 990.0
20260902141211 96 223 3.0 9.0 0.00 0.00 0.00 26 990.1
20260902140311 96 264 3.0 11.0 0.00 0.00 0.00 26 990.3
20260902134511 96 251 6.0 9.0 0.00 0.00 0.00 26 990.5
20260902133611 97 265 3.0 9.0 0.00 0.00 0.00 26 990.6
20260902131811 96 259 4.0 9.0 0.00 0.00 0.00 25 990.7
20260902130911 98 267 5.0 9.0 0.00 0.00 0.00 25 990.8
20260902130011 97 253 4.0 9.0 0.00 0.00 0.00 24 990.9
20260902125111 97 263 4.0 8.0 0.00 0.00 0.00 25 991.0
20260902124211 97 264 3.0 11.0 0.00 0.00 0.00 25 991.1
20260902123311 97 240 2.0 9.0 0.00 0.00 0.00 25 991.1
20260902122411 97 217 4.0 13.0 0.00 0.00 0.00 25 991.2
20260902121511 97 200 4.0 9.0 0.00 0.00 0.00 25 991.3
20260902120611 97 205 3.0 9.0 0.00 0.00 0.00 24 991.4
20260902115711 96 253 4.0 9.0 0.00 0.00 0.00 25 991.5
20260902114811 97 249 4.0 9.0 0.00 0.00 0.00 25 991.6
20260902113911 96 230 5.0 9.0 0.00 0.00 0.00 25 991.6
20260902113011 96 244 4.0 11.0 0.00 0.00 0.00 25 991.7
20260902112111 96 248 4.0 11.0 0.00 0.00 0.00 24 991.8
20260902111211 96 250 3.0 11.0 0.00 0.00 0.00 24 991.8
20260902105411 96 251 4.0 11.0 0.00 0.00 0.00 24 991.7
20260902103611 97 252 3.0 9.0 0.00 0.00 0.00 23 991.9
20260902102711 96 255 3.0 11.0 0.00 0.00 0.00 24 991.9
20260902100911 95 236 4.0 11.0 0.00 0.00 0.00 25 991.9
20260902100011 96 224 4.0 9.0 0.00 0.00 0.00 25 991.8
20260902095111 95 205 3.0 13.0 0.00 0.00 0.00 25 992.1
20260902094211 95 194 4.0 11.0 0.00 0.00 0.00 25 992.1
20260902093311 95 259 3.0 11.0 0.00 0.00 0.00 26 992.1
20260902092411 95 258 4.0 9.0 0.00 0.00 0.00 26 992.1
20260902090611 96 255 3.0 8.0 0.00 0.00 0.00 26 992.0
20260902085711 96 239 2.0 15.0 0.00 0.00 0.00 27 992.1
20260902083911 94 255 3.0 11.0 0.00 0.00 0.00 28 992.1
20260902083011 94 262 4.0 14.0 0.00 0.00 0.00 29 992.2
20260902080311 93 295 2.0 11.0 0.00 0.00 0.00 29 992.1
20260902075411 93 242 2.0 8.0 0.00 0.00 0.00 29 992.0
20260902074511 92 239 4.0 8.0 0.00 0.00 0.00 30 992.1
20260902072711 92 253 2.0 7.0 0.00 0.00 0.00 30 992.0
20260902071811 91 263 2.0 8.0 0.00 0.00 0.00 31 992.0
20260902070911 91 251 4.0 8.0 0.00 0.00 0.00 31 991.9
20260902070011 91 257 3.0 7.0 0.00 0.00 0.00 32 991.9
20260902065111 90 268 2.0 8.0 0.00 0.00 0.00 31 991.8
20260902064211 90 258 3.0 8.0 0.00 0.00 0.00 31 991.8
20260902063311 90 221 2.0 6.0 0.00 0.00 0.00 32 991.8
20260902062411 90 238 2.0 4.0 0.00 0.00 0.00 32 991.7
20260902061511 90 248 2.0 4.0 0.00 0.00 0.00 33 991.8
20260902060611 90 266 2.0 4.0 0.00 0.00 0.00 33 991.8
20260902055711 89 282 2.0 4.0 0.00 0.00 0.00 33 991.7
20260902054811 89 1 0.0 2.0 0.00 0.00 0.00 37 991.8
20260902053011 87 0 0.0 0.0 0.00 0.00 0.00 41 991.7
20260902052111 87 266 0.0 4.0 0.00 0.00 0.00 42 991.8
20260902051211 85 292 0.0 2.0 0.00 0.00 0.00 44 991.8
20260902045411 83 292 0.0 2.0 0.00 0.00 0.00 48 991.8
20260902044511 83 292 0.0 2.0 0.00 0.00 0.00 47 991.8
20260902043611 82 292 1.0 2.0 0.00 0.00 0.00 49 991.7
20260902042711 82 292 0.0 2.0 0.00 0.00 0.00 49 991.7
20260902041811 81 275 0.0 2.0 0.00 0.00 0.00 49 991.8
20260902040911 81 278 0.0 2.0 0.00 0.00 0.00 50 991.7
20260902040011 81 205 0.0 2.0 0.00 0.00 0.00 50 991.6
20260902035111 82 124 0.0 2.0 0.00 0.00 0.00 49 991.6
20260902034211 81 270 0.0 2.0 0.00 0.00 0.00 49 991.6
20260902033311 82 283 1.0 2.0 0.00 0.00 0.00 48 991.5
20260902032411 82 280 2.0 2.0 0.00 0.00 0.00 47 991.5
20260902031511 81 292 0.0 2.0 0.00 0.00 0.00 48 991.4
20260902030611 81 292 0.0 2.0 0.00 0.00 0.00 47 991.3
20260902025711 82 292 0.0 4.0 0.00 0.00 0.00 47 991.2
20260902024811 82 297 2.0 4.0 0.00 0.00 0.00 47 991.1
20260902023911 83 305 0.0 4.0 0.00 0.00 0.00 46 991.1
20260902023011 83 296 3.0 6.0 0.00 0.00 0.00 45 991.1
20260902022111 83 297 4.0 6.0 0.00 0.00 0.00 44 991.1
20260902020311 83 303 3.0 4.0 0.00 0.00 0.00 44 991.1
20260902015411 83 303 2.0 7.0 0.00 0.00 0.00 44 991.2
20260902014511 83 297 3.0 7.0 0.00 0.00 0.00 44 991.3
20260902013611 83 299 0.0 4.0 0.00 0.00 0.00 45 991.2
20260902012711 83 293 2.0 4.0 0.00 0.00 0.00 46 991.2
20260902011811 84 297 2.0 6.0 0.00 0.00 0.00 44 991.1
20260902010911 84 306 2.0 6.0 0.00 0.00 0.00 43 991.2
20260902010011 84 305 2.0 7.0 0.00 0.00 0.00 43 991.0
20260902005111 84 309 4.0 7.0 0.00 0.00 0.00 44 991.0
20260902003311 84 309 1.0 7.0 0.00 0.00 0.00 46 991.0
20260902002411 84 309 6.0 7.0 0.00 0.00 0.00 46 990.9
20260902000611 84 297 3.0 6.0 0.00 0.00 0.00 47 990.9
20260901235711 84 306 4.0 4.0 0.00 0.00 0.00 47 990.9
20260901234811 84 299 2.0 4.0 0.00 0.00 0.00 47 991.0
20260901233911 83 303 2.0 4.0 0.00 0.00 0.00 47 990.9
20260901232111 83 299 2.0 7.0 0.00 0.00 0.00 48 991.0
20260901230311 83 305 3.0 6.0 0.00 0.00 0.00 48 990.9
20260901225411 83 332 0.0 4.0 0.00 0.00 0.00 49 991.0
20260901224511 83 326 2.0 7.0 0.00 0.00 0.00 48 991.0
20260901223611 83 318 2.0 6.0 0.00 0.00 0.00 48 991.0
20260901222711 84 308 1.0 4.0 0.00 0.00 0.00 48 991.0
20260901220911 84 310 1.0 6.0 0.00 0.00 0.00 48 991.0
20260901220011 84 305 2.0 4.0 0.00 0.00 0.00 47 990.9
20260901215111 84 300 0.0 4.0 0.00 0.00 0.00 48 990.8
20260901214211 84 315 1.0 4.0 0.00 0.00 0.00 47 990.8
20260901213311 84 312 2.0 4.0 0.00 0.00 0.00 47 990.9
20260901212411 84 307 2.0 7.0 0.00 0.00 0.00 47 990.9
20260901211511 84 318 0.0 6.0 0.00 0.00 0.00 47 990.8
20260901210611 84 297 1.0 6.0 0.00 0.00 0.00 47 990.8
20260901205711 84 293 1.0 4.0 0.00 0.00 0.00 46 990.7
20260901204811 84 290 1.0 4.0 0.00 0.00 0.00 46 990.8
20260901203911 85 283 1.0 4.0 0.00 0.00 0.00 46 990.7
20260901203011 85 282 1.0 6.0 0.00 0.00 0.00 46 990.8
20260901202111 85 274 0.0 4.0 0.00 0.00 0.00 46 990.8
20260901201211 85 259 1.0 2.0 0.00 0.00 0.00 45 990.9
20260901195411 85 302 0.0 4.0 0.00 0.00 0.00 45 990.9
20260901194511 85 311 1.0 8.0 0.00 0.00 0.00 45 990.8
20260901193611 86 294 2.0 4.0 0.00 0.00 0.00 45 990.8